COSMOS 1275 DEB

Satellite information

Favourite Embed

Satellite Type and Status

DEBRISIN ORBIT

Key statistics

Satellite COSMOS 1275 DEB at a glance.

Uptime

16158

Days in orbit

Revolutions

≈ 14.4

Per day

Orbit

LEO

Low Earth Orbit

Inclination

82.9

Latest

Satellite identification and parameters

Extended collection of information and parameters for COSMOS 1275 DEB.

Object identification

Identified? True

Debris? True

Object name: COSMOS 1275 DEB

International designator: 1981-053NQ

Object number (NORAD): 39954

Object ID (CCSDS): 39954

Country: COMMONWEALTH OF INDEPENDENT STATES (CIS)

Current information (Y/N): Y

RCS size: SMALL

Orbital parameters

Period: 100.148 minutes

Inclination: 82.8919 deg

SMA: 7143.688 km

Apoapsis: 796.602 km

Periapsis: 734.505 km

RAAN: 334.6224 deg

Eccentricy: 0.00434624

Argument of periapsis: 95.4862 deg

Mean anomaly: 265.1289 deg

Mean motion: 14.37867993 rev/day

Mean motion (dot): 0.00008824 rev/day2

B* drag term: 0.0028868325 1/REarth

Two-line elements (TLE)

Creation date: Aug. 27, 2025, 12:18 p.m.

Reference frame: TEME

Reference center: EARTH

Epoch: Aug. 27, 2025, 5:53 a.m. UTC

TLE line 0: 0 COSMOS 1275 DEB

TLE line 1: 1 39954U 81053NQ 25239.24582060 .00008824 00000-0 28868-2 0 9991

TLE line 2: 2 39954 82.8919 334.6224 0043462 95.4862 265.1289 14.37867993580852

Live tracking on map

Real-time ground track for satellite COSMOS 1275 DEB.

In-orbit conjunctions

A list of the most updated potential collisions computed for object COSMOS 1275 DEB.

Target Orbit TCA Probability of collision Miss distance Type
CZ-6A DEB SSO 2025-05-19 08:35:33 0.0001053236 153.0 (m) DEBRIS
COSMOS 1275 DEB LEO 2025-04-08 17:22:47 0.0001895443 174.0 (m) DEBRIS
PICOSAT 9 LEO 2025-03-02 20:35:18 0.0001300386 148.0 (m) PAYLOAD
COSMOS 1110 LEO 2025-02-15 14:11:08 0.0001704883 394.0 (m) PAYLOAD

Associated space launch

Navigation satellite providing location information for the Tsiklon-B navigation system

COSMOS 1275 DEB was lifted into orbit during the mission ‘Kosmos-3M | Parus 27’, on board a Kosmos-3M space rocket.

The launch took place on June 4, 1981, 3:41 p.m. from 132/2.

For more information about the launch, click the button.

Launch to space Kosmos-3M | Parus 27
Kosmos-3M | Parus 27

Agency: N/A

Status: Launch Successful

Launch date: June 4, 1981, 3:41 p.m. UTC

Rocket: Kosmos-3M

Launch pad: 132/2

Location: Plesetsk Cosmodrome, Russian Federation

...

Latest news about this satellite

There are no fresh news available about this satellite. Check back as we update our databases every day.


Newsletter sign-up

Weekly statistics, charts and insights to help you stay on top of the space industry.